This is the latest recevied weather packets stored in our database for station/object SV9TNF-56. If no packets are shown the sender has not sent any weather packets the latest 10 day(s).
| Time | Temp. | Humidity | Pressure | Rain* | Wind** | Luminosity | Snow |
|---|---|---|---|---|---|---|---|
| 1788308011 | 25° C | 58% | 1011.2 hPa | 0 mm | 4.92 m/s, 251° | - | - |
| 1788307710 | 25° C | 61% | 1011.2 hPa | 0 mm | 12.96 m/s, 283° | - | - |
| 1788307411 | 25° C | 59% | 1011.5 hPa | 0 mm | 8.05 m/s, 244° | - | - |
| 1788307110 | 25° C | 59% | 1011.5 hPa | 0 mm | 15.2 m/s, 222° | - | - |
| 1788306811 | 25.56° C | 58% | 1011.5 hPa | 0 mm | 7.15 m/s, 258° | - | - |
| 1788306510 | 25.56° C | 54% | 1011.5 hPa | 0 mm | 8.94 m/s, 227° | - | - |
| 1788306221 | 25.56° C | 53% | 1011.2 hPa | 0 mm | 7.15 m/s, 126° | - | - |
| 1788305910 | 25.56° C | 53% | 1011.5 hPa | 0 mm | 3.13 m/s, 239° | - | - |
| 1788305610 | 25° C | 55% | 1011.5 hPa | 0 mm | 21.9 m/s, 306° | - | - |
| 1788305310 | 24.44° C | 57% | 1011.5 hPa | 0 mm | 13.86 m/s, 342° | - | - |
| 1788305009 | 24.44° C | 63% | 1011.5 hPa | 0 mm | 5.36 m/s, 303° | - | - |
| 1788304709 | 25° C | 62% | 1011.5 hPa | 0 mm | 4.92 m/s, 266° | - | - |
| 1788304410 | 25° C | 57% | 1011.9 hPa | 0 mm | 8.05 m/s, 300° | - | - |
| 1788304110 | 25.56° C | 54% | 1011.5 hPa | 0 mm | 8.94 m/s, 321° | - | - |
| 1788303809 | 25.56° C | 52% | 1011.5 hPa | 0 mm | 8.49 m/s, 283° | - | - |
| 1788303509 | 25.56° C | 54% | 1011.9 hPa | 0 mm | 12.52 m/s, 287° | - | - |
| 1788303209 | 25.56° C | 54% | 1011.9 hPa | 0 mm | 7.15 m/s, 258° | - | - |
| 1788302910 | 25.56° C | 53% | 1011.9 hPa | 0 mm | 13.41 m/s, 281° | - | - |
| 1788302609 | 25.56° C | 54% | 1011.9 hPa | 0 mm | 16.54 m/s, 306° | - | - |
| 1788302309 | 25.56° C | 54% | 1011.5 hPa | 0 mm | 13.86 m/s, 271° | - | - |
| 1788302009 | 25.56° C | 53% | 1011.9 hPa | 0 mm | 9.83 m/s, 258° | - | - |
| 1788301709 | 25.56° C | 53% | 1011.9 hPa | 0 mm | 13.41 m/s, 260° | - | - |
| 1788301408 | 25.56° C | 53% | 1011.9 hPa | 0 mm | 7.6 m/s, 216° | - | - |
| 1788301108 | 25° C | 53% | 1011.9 hPa | 0 mm | 4.92 m/s, 270° | - | - |
| 1788300809 | 25.56° C | 51% | 1011.9 hPa | 0 mm | 4.47 m/s, 156° | - | - |
* Rain latest hour (hover to see other rain measurements)
** Current wind speed in m/s (hover to see current wind gust speed)